Change the Weather History Date:

Monday, November 11, 2013

  Actual Average Record
Temperature  
Mean Temperature 26 °F -  
Max Temperature 42 °F 43 °F 75 °F (1949)
Min Temperature 10 °F 22 °F -8 °F (1986)
Degree Days  
Heating Degree Days 39    
Moisture  
Dew Point 15 °F    
Average Humidity 70    
Maximum Humidity 86    
Minimum Humidity 50    
Precipitation  
Precipitation 0.00 in - - ()
Sea Level Pressure  
Sea Level Pressure 30.50 in    
Wind  
Wind Speed 14 mph (NNW)    
Max Wind Speed 21 mph    
Max Gust Speed 30 mph    
Visibility 10 miles    
Events      
Averages and records for this station are not official NWS values.
T = Trace of Precipitation, MM = Missing Value Source: NWS Daily Summary

Daily Weather History Graph

Daily Weather History Graph

Search for Another Location

Airport or City:

Trip Planner

Search our weather history database for the weather conditions in past years. The results will help you decide how hot, cold, wet, or windy it might be!

Date:

Astronomy

Nov. 11, 2013 Rise Set
Actual Time 7:17 AM CST 5:09 PM CST
Civil Twilight 6:46 AM CST 5:39 PM CST
Nautical Twilight 6:12 AM CST 6:13 PM CST
Astronomical Twilight 5:39 AM CST 6:47 PM CST
Moon 1:59 PM CST (11/11) 12:54 AM CST (11/11)
Length of Visible Light 10h 53m
Length of Day
9h 52m
Waxing Gibbous, 66% of the Moon is Illuminated
Nov 11
Waxing Gibbous
Nov 17
Full
Nov 25
Last Quarter
Dec 2
New
Dec 9
First Quarter

Hourly Weather History & Observations

Time (CST) Temp. Windchill Dew Point Humidity Pressure Visibility Wind Dir Wind Speed Gust Speed Precip Events Conditions
12:15 AM 42.8 °F 37.0 °F 35.6 °F 76% 30.10 in 10.0 mi West 10.4 mph - N/A   Clear
12:35 AM 39.2 °F 32.0 °F 33.8 °F 81% 30.10 in 10.0 mi NW 11.5 mph - N/A   Clear
12:55 AM 39.2 °F 31.6 °F 33.8 °F 81% 30.11 in 10.0 mi NW 12.7 mph - N/A   Clear
1:15 AM 39.2 °F 32.0 °F 33.8 °F 81% 30.11 in 10.0 mi NW 11.5 mph - N/A   Clear
1:35 AM 39.2 °F 30.8 °F 33.8 °F 81% 30.12 in 10.0 mi NW 15.0 mph - N/A   Clear
1:55 AM 39.2 °F 31.2 °F 33.8 °F 81% 30.13 in 10.0 mi NNW 13.8 mph 23.0 mph N/A   Clear
2:15 AM 39.2 °F 30.8 °F 33.8 °F 81% 30.15 in 10.0 mi NNW 15.0 mph - N/A   Clear
2:35 AM 39.2 °F 31.6 °F 33.8 °F 81% 30.17 in 10.0 mi North 12.7 mph - N/A   Clear
2:55 AM 39.2 °F 29.8 °F 30.2 °F 70% 30.18 in 10.0 mi North 18.4 mph 21.9 mph N/A   Clear
3:15 AM 37.4 °F 27.8 °F 30.2 °F 75% 30.19 in 10.0 mi North 17.3 mph 20.7 mph N/A   Partly Cloudy
3:35 AM 33.8 °F 22.5 °F 26.6 °F 75% 30.21 in 10.0 mi North 19.6 mph 27.6 mph N/A   Mostly Cloudy
3:55 AM 32.0 °F 22.5 °F 26.6 °F 80% 30.22 in 10.0 mi North 12.7 mph 20.7 mph N/A   Overcast
4:15 AM 30.2 °F 18.9 °F 24.8 °F 80% 30.24 in 10.0 mi North 16.1 mph 21.9 mph N/A   Mostly Cloudy
4:35 AM 30.2 °F 18.5 °F 23.0 °F 75% 30.26 in 10.0 mi North 17.3 mph 23.0 mph N/A   Partly Cloudy
4:55 AM 28.4 °F 17.0 °F 19.4 °F 69% 30.27 in 10.0 mi North 15.0 mph 26.5 mph N/A   Clear
5:15 AM 28.4 °F 15.1 °F 17.6 °F 64% 30.30 in 10.0 mi North 20.7 mph 29.9 mph N/A   Clear
5:35 AM 26.6 °F 14.7 °F 15.8 °F 64% 30.32 in 10.0 mi North 15.0 mph 26.5 mph N/A   Clear
5:55 AM 26.6 °F 15.2 °F 15.8 °F 64% 30.33 in 10.0 mi North 13.8 mph 19.6 mph N/A   Clear
6:15 AM 24.8 °F 10.7 °F 14.0 °F 64% 30.34 in 10.0 mi North 19.6 mph 26.5 mph N/A   Partly Cloudy
6:35 AM 24.8 °F 11.5 °F 12.2 °F 59% 30.36 in 10.0 mi North 17.3 mph 24.2 mph N/A   Clear
6:55 AM 24.8 °F 11.5 °F 12.2 °F 59% 30.38 in 10.0 mi North 17.3 mph 25.3 mph N/A   Clear
7:15 AM 24.8 °F 12.9 °F 12.2 °F 59% 30.38 in 10.0 mi North 13.8 mph - N/A   Clear
7:35 AM 23.0 °F 9.6 °F 14.0 °F 68% 30.41 in 10.0 mi NNW 16.1 mph 21.9 mph N/A   Partly Cloudy
7:55 AM 21.2 °F 8.3 °F 15.8 °F 80% 30.42 in 10.0 mi North 13.8 mph - N/A   Mostly Cloudy
8:15 AM 21.2 °F 7.3 °F 15.8 °F 80% 30.44 in 10.0 mi North 16.1 mph 23.0 mph N/A   Overcast
8:35 AM 21.2 °F 8.9 °F 17.6 °F 86% 30.45 in 2.0 mi North 12.7 mph 19.6 mph N/A   Overcast
8:55 AM 21.2 °F 10.1 °F 15.8 °F 80% 30.47 in 10.0 mi North 10.4 mph - N/A   Mostly Cloudy
9:15 AM 21.2 °F 8.9 °F 14.0 °F 74% 30.48 in 10.0 mi North 12.7 mph 23.0 mph N/A   Overcast
9:35 AM 21.2 °F 8.9 °F 14.0 °F 74% 30.50 in 10.0 mi NNW 12.7 mph - N/A   Overcast
9:55 AM 21.2 °F 8.3 °F 12.2 °F 68% 30.50 in 10.0 mi North 13.8 mph 19.6 mph N/A   Overcast
10:15 AM 21.2 °F 7.8 °F 12.2 °F 68% 30.50 in 10.0 mi North 15.0 mph 20.7 mph N/A   Mostly Cloudy
10:35 AM 23.0 °F 10.1 °F 15.8 °F 74% 30.52 in 10.0 mi NNW 15.0 mph - N/A   Mostly Cloudy
10:55 AM 21.2 °F 7.8 °F 14.0 °F 74% 30.53 in 10.0 mi North 15.0 mph 21.9 mph N/A   Mostly Cloudy
11:15 AM 21.2 °F 8.3 °F 15.8 °F 80% 30.53 in 3.0 mi NNW 13.8 mph - N/A   Mostly Cloudy
11:35 AM 23.0 °F 11.1 °F 12.2 °F 63% 30.53 in 10.0 mi NNW 12.7 mph - N/A   Mostly Cloudy
11:55 AM 24.8 °F 11.9 °F 10.4 °F 54% 30.54 in 10.0 mi NNW 16.1 mph - N/A   Partly Cloudy
12:15 PM 24.8 °F 11.9 °F 12.2 °F 59% 30.54 in 10.0 mi NNW 16.1 mph 24.2 mph N/A   Clear
12:35 PM 24.8 °F 11.1 °F 10.4 °F 54% 30.55 in 10.0 mi NNW 18.4 mph 21.9 mph N/A   Clear
12:55 PM 24.8 °F 10.3 °F 10.4 °F 54% 30.55 in 10.0 mi NNW 20.7 mph - N/A   Clear
1:15 PM 24.8 °F 10.7 °F 12.2 °F 59% 30.55 in 10.0 mi North 19.6 mph - N/A   Clear
1:35 PM 24.8 °F 12.9 °F 8.6 °F 50% 30.56 in 10.0 mi NNW 13.8 mph 21.9 mph N/A   Clear
1:55 PM 24.8 °F 10.3 °F 10.4 °F 54% 30.56 in 10.0 mi NNW 20.7 mph 24.2 mph N/A   Clear
2:15 PM 24.8 °F 11.5 °F 10.4 °F 54% 30.57 in 10.0 mi NNW 17.3 mph - N/A   Clear
2:35 PM 24.8 °F 11.1 °F 10.4 °F 54% 30.57 in 10.0 mi NNW 18.4 mph 25.3 mph N/A   Clear
2:55 PM 24.8 °F 10.7 °F 10.4 °F 54% 30.58 in 10.0 mi NNW 19.6 mph 24.2 mph N/A   Clear
3:15 PM 24.8 °F 11.1 °F 12.2 °F 59% 30.59 in 10.0 mi NW 18.4 mph 21.9 mph N/A   Clear
3:35 PM 24.8 °F 11.1 °F 12.2 °F 59% 30.59 in 10.0 mi NNW 18.4 mph 24.2 mph N/A   Clear
3:55 PM 24.8 °F 11.1 °F 12.2 °F 59% 30.60 in 10.0 mi NW 18.4 mph 24.2 mph N/A   Clear
4:15 PM 24.8 °F 11.9 °F 10.4 °F 54% 30.61 in 10.0 mi NNW 16.1 mph 24.2 mph N/A   Clear
4:35 PM 21.2 °F 6.8 °F 10.4 °F 63% 30.62 in 10.0 mi NW 17.3 mph 20.7 mph N/A   Clear
4:55 PM 21.2 °F 6.8 °F 10.4 °F 63% 30.63 in 10.0 mi NNW 17.3 mph - N/A   Clear
5:15 PM 21.2 °F 6.8 °F 8.6 °F 58% 30.64 in 10.0 mi NNW 17.3 mph - N/A   Clear
5:35 PM 19.4 °F 6.6 °F 10.4 °F 68% 30.64 in 10.0 mi NNW 12.7 mph - N/A   Clear
5:55 PM 19.4 °F 5.5 °F 6.8 °F 58% 30.66 in 10.0 mi NNW 15.0 mph 20.7 mph N/A   Clear
6:15 PM 19.4 °F 7.2 °F 8.6 °F 63% 30.67 in 10.0 mi NW 11.5 mph - N/A   Clear
6:35 PM 17.6 °F 6.4 °F 8.6 °F 68% 30.68 in 10.0 mi NW 9.2 mph - N/A   Clear
6:55 PM 17.6 °F 5.0 °F 8.6 °F 68% 30.69 in 10.0 mi NW 11.5 mph - N/A   Clear
7:15 PM 17.6 °F 5.0 °F 8.6 °F 68% 30.69 in 10.0 mi NW 11.5 mph - N/A   Clear
7:35 PM 15.8 °F 4.2 °F 8.6 °F 73% 30.70 in 10.0 mi NW 9.2 mph - N/A   Clear
7:55 PM 15.8 °F 6.1 °F 8.6 °F 73% 30.71 in 10.0 mi NW 6.9 mph - N/A   Clear
8:15 PM 15.8 °F 3.4 °F 8.6 °F 73% 30.72 in 10.0 mi NW 10.4 mph - N/A   Clear
8:35 PM 15.8 °F 4.2 °F 8.6 °F 73% 30.72 in 10.0 mi NW 9.2 mph - N/A   Clear
8:55 PM 15.8 °F 4.2 °F 8.6 °F 73% 30.74 in 10.0 mi NW 9.2 mph - N/A   Clear
9:15 PM 14.0 °F 2.9 °F 8.6 °F 79% 30.74 in 10.0 mi NW 8.1 mph - N/A   Clear
9:35 PM 14.0 °F 3.9 °F 8.6 °F 79% 30.75 in 10.0 mi NW 6.9 mph - N/A   Clear
9:55 PM 14.0 °F 2.9 °F 8.6 °F 79% 30.76 in 10.0 mi NNW 8.1 mph - N/A   Clear
10:15 PM 14.0 °F 3.9 °F 8.6 °F 79% 30.76 in 10.0 mi NW 6.9 mph - N/A   Clear
10:35 PM 12.2 °F 1.7 °F 6.8 °F 79% 30.77 in 10.0 mi NW 6.9 mph - N/A   Clear
10:55 PM 12.2 °F 2.9 °F 6.8 °F 79% 30.78 in 10.0 mi WNW 5.8 mph - N/A   Clear
11:15 PM 12.2 °F 6.1 °F 6.8 °F 79% 30.78 in 10.0 mi WNW 3.5 mph - N/A   Clear
11:35 PM 10.4 °F -0.4 °F 6.8 °F 85% 30.79 in 10.0 mi NW 6.9 mph - N/A   Clear
11:55 PM 10.4 °F -0.4 °F 6.8 °F 85% 30.80 in 10.0 mi NW 6.9 mph - N/A   Clear